Wind_Speed
10 9 8 7 7 8 8 8 8 8 9 9 10 11 12 12 13 14 15 15 16 16 17 17 18 18 19 19 19 20 20 20 20 21 21 21 21 22
11 10 10 9 9 9 10 10 10 11 11 12 12 13 14 15 16 17 17 18 18 19 20 20 20 21 21 21 22 22 22 23 23 23 24 24 24 25
12 11 11 11 11 11 12 12 13 13 14 15 15 16 17 18 18 19 20 20 21 22 22 22 23 23 23 24 24 25 25 26 26 26 26 27 27 27
13 13 13 13 13 14 14 15 15 16 17 17 18 19 20 21 21 22 22 23 23 24 24 25 26 26 26 27 27 28 28 29 29 29 30 30 30 30
15 14 15 15 16 16 17 17 18 19 19 20 21 22 23 23 24 25 25 26 26 27 27 27 28 29 29 30 30 31 31 31 32 32 32 32 33 33
17 17 17 17 18 19 19 20 21 21 22 23 24 25 25 26 26 27 27 28 29 30 30 30 31 31 32 33 34 34 34 34 34 35 35 36 36 36
19 19 20 20 21 21 22 23 23 24 25 26 27 27 28 29 29 30 31 32 32 33 33 33 34 34 35 36 36 37 37 38 39 39 39 39 39 40
21 22 22 23 23 24 25 26 26 27 28 29 29 30 31 32 33 34 35 35 35 37 38 37 38 38 38 39 40 39 40 41 42 42 42 42 42 42
23 24 24 25 25 27 28 28 29 30 31 32 32 33 34 35 36 37 38 38 38 39 41 41 42 42 42 43 44 44 44 44 44 44 44 44 44 44
25 26 26 27 28 29 29 30 31 32 33 34 35 36 37 38 38 39 40 41 41 42 44 44 44 45 45 45 46 46 46 46 45 45 45 46 47 47
26 27 28 29 30 31 32 32 33 34 35 36 37 38 38 39 40 41 42 43 44 44 46 47 47 48 47 47 48 48 48 48 48 48 48 49 50 50
29 30 31 32 32 33 34 34 35 36 37 38 39 39 40 41 42 43 44 46 46 46 48 49 49 50 49 48 49 50 50 51 51 51 52 52 53 53
31 31 32 33 34 35 35 36 37 38 39 40 40 41 42 43 44 46 47 48 48 48 49 50 50 51 51 50 50 51 53 53 53 53 54 55 55 55
33 33 33 34 36 37 38 39 40 41 41 41 42 43 44 45 47 48 49 49 49 49 49 50 51 52 53 53 53 53 54 55 56 56 56 55 55 55
33 34 35 35 36 37 39 40 41 42 42 43 45 46 47 48 49 49 49 49 49 49 50 51 52 53 54 55 55 55 55 55 55 55 55 55 54 53
35 35 36 37 38 39 40 41 42 43 44 45 46 47 48 48 49 49 48 49 49 50 51 52 53 53 54 54 55 54 54 54 53 53 53 52 51 51
36 37 37 38 40 41 42 42 42 43 44 45 46 47 48 48 48 48 48 49 49 50 50 51 52 52 53 54 54 53 53 52 52 52 51 49 48 48
39 39 40 40 41 42 43 43 43 44 45 46 46 47 48 49 49 48 49 50 50 49 49 50 50 51 51 52 53 53 51 51 50 48 48 46 45 44
40 40 41 42 43 43 44 45 45 46 46 46 46 47 47 48 48 49 49 49 50 50 50 50 50 50 50 49 49 50 48 47 46 44 43 42 41 40
41 42 43 43 44 44 45 45 46 46 46 46 46 47 48 49 50 49 49 49 49 50 50 50 50 49 49 48 46 44 44 44 42 41 40 39 38 38
41 42 43 43 43 44 45 46 46 46 47 48 49 49 49 50 50 49 49 49 50 50 49 49 48 47 46 45 43 41 41 41 40 39 37 36 35 35
42 43 43 43 43 44 45 46 46 47 47 48 49 48 49 49 49 49 49 48 49 49 48 46 45 44 43 43 41 40 39 38 37 37 36 35 34 32
42 42 43 43 44 45 45 46 46 47 47 47 48 48 48 48 49 48 48 48 47 46 45 44 42 42 41 41 40 39 38 36 35 34 33 32 31 30
Wind_Direction
234 239 246 257 273 282 289 295 299 301 304 307 309 309 310 311 312 311 311 310 310 309 309 309 308 307 305 303 302 299 298 296 296 295 294 293 293 292
236 241 248 261 274 282 287 292 294 296 298 301 303 303 304 305 306 306 307 306 306 305 305 305 305 304 304 303 301 299 296 295 295 293 292 291 290 290
241 247 255 264 272 278 283 287 291 294 297 300 301 301 302 303 304 304 304 304 304 304 303 303 303 302 301 300 299 297 295 294 293 292 291 290 290 289
245 252 259 265 271 277 282 286 289 292 296 299 300 300 301 302 303 304 304 302 302 301 301 301 301 301 300 299 299 298 296 293 292 290 289 289 289 288
250 256 262 268 273 278 283 285 288 291 294 296 297 298 299 300 300 301 302 302 302 301 300 299 299 299 298 298 298 298 296 294 292 290 288 287 287 287
255 261 266 271 276 280 283 286 288 290 292 293 295 296 296 296 297 297 299 299 300 299 299 298 297 297 296 297 297 296 294 292 291 289 288 287 286 285
260 264 268 272 276 280 283 285 287 289 290 292 293 294 294 295 295 295 295 296 296 297 296 296 297 296 295 295 295 293 292 291 290 289 288 287 286 285
261 266 270 273 277 280 283 284 286 288 289 291 291 292 293 294 294 294 294 295 295 295 295 295 296 296 295 294 294 292 291 290 289 287 286 286 284 283
264 267 271 274 278 281 282 284 286 287 288 289 291 291 292 293 294 294 294 294 295 295 295 295 295 296 295 295 294 293 292 290 289 287 286 285 284 282
266 269 272 276 280 282 284 286 287 287 289 290 291 291 293 294 294 294 294 294 294 295 295 295 295 295 295 294 293 293 292 291 289 288 286 285 284 282
267 270 273 278 281 282 284 285 286 287 288 291 291 291 292 294 294 294 294 294 294 294 295 295 295 295 295 293 293 292 291 290 289 287 286 285 284 282
270 272 275 278 280 282 284 285 285 285 288 290 291 291 292 293 293 294 294 295 295 295 295 295 295 295 294 293 293 292 291 289 288 287 286 285 284 283
272 274 277 278 281 283 284 284 284 286 288 290 290 291 291 292 292 293 293 294 295 294 294 294 295 294 294 293 293 292 291 290 289 287 286 286 284 283
274 277 279 280 282 284 285 285 285 287 288 289 290 291 291 292 293 294 294 294 294 294 294 295 295 295 295 295 294 293 292 291 290 289 288 286 284 283
276 279 281 283 284 285 287 288 288 289 290 289 290 292 293 294 294 294 294 294 295 295 295 295 295 295 296 296 296 295 294 292 292 290 289 287 285 284
277 280 284 286 287 289 290 289 289 289 290 291 291 292 293 295 295 295 295 294 295 296 296 295 296 296 297 297 297 296 295 294 293 291 290 289 287 284
280 283 285 287 288 289 289 289 289 290 291 292 292 293 294 295 295 294 295 297 297 297 297 297 297 297 297 298 297 297 297 296 295 293 291 289 287 285
280 282 284 285 287 288 289 289 289 291 292 292 292 292 293 294 295 295 296 297 298 298 298 298 298 298 299 300 299 299 298 297 296 295 293 291 289 287
282 283 284 285 286 287 288 289 290 291 291 292 292 293 294 295 296 296 297 297 297 298 299 299 299 300 300 301 300 299 299 299 298 297 295 293 292 289
284 284 284 285 286 287 288 289 291 292 293 293 293 294 294 295 295 296 297 297 297 298 298 299 300 300 301 302 302 301 301 301 301 299 297 295 293 292
285 285 286 286 287 288 289 289 290 291 292 292 293 294 295 295 295 296 297 297 297 298 297 298 298 299 300 302 302 301 301 301 302 301 300 297 296 294
285 286 287 287 287 288 289 289 289 290 291 292 293 294 295 295 296 296 297 297 296 296 297 297 297 298 300 302 302 301 300 301 302 302 302 301 299 298
286 286 286 287 288 288 289 290 290 291 292 292 292 294 295 296 296 297 297 298 297 296 296 296 297 299 301 302 301 301 301 301 301 301 301 300 300 301
Height
5881 5883 5884 5885 5885 5886 5886 5886 5886 5886 5886 5886 5885 5885 5884 5883 5882 5881 5880 5879 5878 5877 5876 5875 5874 5872 5871 5870 5868 5867 5866 5864 5863 5862 5861 5860 5859 5858
5879 5880 5881 5882 5883 5883 5883 5884 5884 5884 5883 5883 5883 5882 5881 5880 5879 5878 5877 5876 5874 5873 5872 5871 5870 5868 5867 5865 5864 5862 5860 5859 5858 5856 5855 5854 5853 5852
5877 5878 5879 5880 5880 5881 5881 5881 5881 5880 5880 5880 5879 5878 5877 5876 5875 5874 5873 5871 5870 5869 5867 5866 5864 5863 5861 5859 5858 5856 5855 5853 5851 5850 5849 5847 5846 5845
5874 5875 5876 5877 5877 5877 5878 5877 5877 5877 5876 5876 5875 5874 5873 5872 5870 5869 5867 5866 5865 5863 5862 5860 5858 5856 5855 5853 5851 5849 5848 5846 5844 5843 5841 5839 5838 5837
5871 5872 5873 5873 5874 5874 5874 5873 5873 5872 5872 5871 5870 5869 5868 5866 5865 5863 5862 5860 5859 5857 5856 5854 5852 5850 5848 5846 5844 5842 5840 5838 5836 5834 5832 5831 5829 5827
5867 5868 5869 5869 5869 5869 5869 5868 5868 5867 5866 5865 5864 5863 5862 5860 5859 5857 5856 5854 5852 5850 5848 5846 5844 5842 5840 5838 5836 5833 5831 5829 5827 5825 5823 5821 5819 5817
5863 5863 5864 5864 5864 5864 5863 5863 5862 5861 5860 5859 5858 5857 5855 5854 5852 5850 5849 5847 5845 5842 5840 5838 5836 5834 5831 5829 5826 5824 5821 5819 5816 5814 5812 5810 5808 5806
5857 5858 5858 5858 5858 5858 5857 5856 5855 5854 5853 5852 5851 5849 5847 5846 5844 5842 5840 5838 5836 5834 5831 5829 5826 5824 5821 5819 5816 5813 5810 5808 5805 5802 5800 5798 5795 5794
5851 5852 5852 5852 5852 5851 5850 5849 5848 5847 5845 5844 5843 5841 5839 5837 5834 5832 5830 5828 5826 5823 5820 5818 5815 5813 5810 5807 5804 5800 5798 5795 5792 5789 5787 5784 5782 5780
5845 5845 5845 5845 5845 5844 5842 5841 5840 5838 5837 5836 5834 5832 5830 5827 5825 5822 5820 5818 5816 5812 5808 5806 5804 5801 5798 5794 5790 5787 5784 5781 5778 5775 5773 5770 5768 5766
5838 5838 5838 5837 5836 5835 5834 5833 5832 5830 5828 5826 5825 5823 5820 5818 5815 5812 5809 5806 5804 5802 5797 5793 5791 5788 5785 5781 5777 5773 5770 5767 5763 5760 5757 5755 5752 5749
5830 5830 5830 5829 5828 5826 5825 5824 5822 5820 5819 5817 5815 5813 5810 5807 5804 5801 5798 5794 5791 5788 5784 5780 5777 5773 5771 5768 5763 5759 5755 5751 5748 5744 5741 5738 5734 5731
5822 5822 5821 5820 5818 5817 5816 5814 5813 5811 5809 5807 5804 5802 5799 5796 5793 5789 5785 5782 5778 5775 5771 5766 5762 5758 5754 5753 5749 5744 5739 5735 5731 5727 5723 5719 5716 5712
5813 5813 5812 5811 5809 5807 5806 5804 5802 5800 5798 5796 5793 5790 5787 5784 5780 5776 5773 5768 5764 5761 5756 5751 5747 5742 5738 5735 5732 5728 5722 5717 5712 5709 5705 5701 5697 5693
5804 5803 5802 5801 5799 5797 5795 5792 5790 5788 5786 5784 5781 5778 5775 5771 5767 5763 5759 5755 5751 5746 5742 5737 5732 5727 5722 5718 5714 5710 5705 5700 5694 5689 5685 5681 5678 5674
5794 5793 5792 5790 5788 5786 5784 5781 5779 5776 5774 5771 5768 5765 5761 5757 5753 5749 5745 5741 5737 5733 5728 5722 5717 5712 5707 5702 5696 5692 5687 5681 5676 5671 5666 5663 5659 5655
5783 5782 5781 5779 5777 5775 5772 5770 5767 5764 5761 5758 5755 5751 5747 5744 5740 5735 5731 5727 5722 5718 5714 5708 5702 5697 5691 5685 5680 5675 5669 5664 5659 5654 5649 5646 5643 5639
5772 5771 5769 5767 5765 5763 5760 5757 5754 5751 5748 5745 5741 5738 5734 5730 5726 5721 5717 5713 5708 5703 5698 5693 5688 5683 5678 5672 5664 5658 5654 5648 5643 5638 5633 5629 5628 5624
5760 5759 5757 5755 5753 5750 5747 5744 5741 5739 5735 5732 5728 5724 5720 5716 5712 5708 5703 5699 5694 5689 5684 5678 5673 5667 5663 5659 5653 5643 5638 5633 5628 5624 5620 5615 5613 5611
5749 5747 5745 5743 5740 5737 5734 5731 5728 5725 5722 5718 5715 5711 5707 5702 5698 5693 5689 5684 5680 5675 5669 5664 5659 5653 5648 5643 5639 5633 5625 5619 5615 5611 5608 5604 5601 5598
5737 5735 5732 5730 5727 5724 5721 5718 5715 5711 5708 5704 5701 5697 5692 5688 5683 5679 5674 5670 5665 5660 5655 5650 5645 5640 5634 5629 5625 5621 5615 5608 5603 5599 5596 5592 5590 5587
5725 5722 5719 5716 5714 5711 5708 5704 5701 5697 5694 5690 5686 5682 5678 5673 5669 5664 5660 5655 5650 5645 5641 5636 5631 5627 5622 5617 5613 5608 5604 5599 5594 5589 5585 5581 5578 5575
5712 5709 5706 5703 5700 5697 5694 5690 5687 5683 5680 5676 5672 5668 5664 5659 5655 5650 5645 5641 5636 5631 5627 5623 5619 5614 5610 5605 5601 5597 5592 5588 5584 5581 5577 5573 5569 5566